Home   Weather   Völkermarkt   Past weeks

Flag for Austria Past Weather in Völkermarkt, Carinthia, Austria — Yesterday and Last 2 Weeks

Now
19 °F

Overcast.


Feels Like: N/A
Forecast: 19 / 31 °F
Wind: N/A

Location: Klagenfurt-Flughafen

Current Time: Jan 16, 2017 at 6:43:20 pm

Latest Report: Jan 16, 2017 at 5:00 pm


Visibility: 7 mi

Pressure: 30.19 "Hg

Humidity: 83%

Dew Point: 15 °F

Location of VölkermarktLocation

Past Weather in Völkermarkt — Graph

°F

Völkermarkt Temperature Yesterday

Maximum temperature yesterday: 22 °F (at 3:00 pm)
Minimum temperature yesterday: 6 °F (at 8:00 am)
Average temperature yesterday: 14 °F

High & Low Weather Summary for the Past Weeks

 TemperatureHumidityPressure
High42 °F (Jan 3, 2:00 pm)100% (Jan 16, 12:00 am)30.62 "Hg (Jan 16, 12:00 am)
Low4 °F (Jan 7, 8:00 am)23% (Jan 6, 3:00 pm)29.55 "Hg (Jan 13, 1:00 pm)
Average22 °F69%30.16 "Hg
* Reported Jan 1 5:00 pm — Jan 16 5:00 pm, Völkermarkt, Weather by CustomWeather, © 2017

Note: Actual official high and low records may vary slightly from our data, if they occured in-between our weather recording intervals... More about our weather records

Advertising

Völkermarkt Weather History for the Previous 24 Hours

Scroll right to see more
 ConditionsComfort  
Time TempWeatherWind HumidityBarometerVisibility
5:00 pm
Mon, Jan 16
19 °FOvercast.N/A83%30.19 "Hg7 mi
4:00 pm20 °FOvercast.N/A81%30.19 "Hg7 mi
3:00 pm20 °FOvercast.N/A82%30.18 "Hg9 mi
2:00 pm19 °FOvercast.N/A81%30.19 "Hg6 mi
1:00 pm19 °FPartly sunny.N/A82%30.20 "Hg4 mi
12:00 pm19 °FPartly sunny.N/A78%30.22 "Hg6 mi
11:00 am13 °FPartly sunny.N/A85%30.27 "Hg5 mi
10:00 am10 °FLow clouds.N/A85%30.29 "Hg9 mi
9:00 am9 °FLow clouds.N/A86%30.29 "Hg4 mi
8:00 am7 °FLight snow. Low clouds.N/A86%30.29 "Hg4 mi
7:00 am6 °FLight snow. Low clouds.N/A86%30.28 "Hg0 mi
6:00 am7 °FLow clouds.N/A85%30.27 "Hg6 mi
5:00 am8 °FLow clouds.N/A86%30.27 "Hg7 mi
4:00 am8 °FLow clouds.N/A86%30.27 "Hg1 mi
3:00 am8 °FLow clouds.N/A87%30.28 "Hg1 mi
2:00 am9 °FLow clouds.N/A88%30.27 "Hg2 mi
1:00 am8 °FLow clouds.N/A88%30.28 "Hg1 mi
12:00 am11 °FIcy mix. Low clouds.N/A100%30.28 "Hg0 mi
11:00 pm
Sun, Jan 15
10 °FClear.N/A88%30.28 "Hg6 mi
10:00 pm12 °FPassing clouds.N/A89%30.26 "Hg6 mi
9:00 pm14 °FPassing clouds.N/A89%30.26 "Hg1 mi
8:00 pm15 °FPassing clouds.N/A89%30.25 "Hg4 mi
7:00 pm17 °FPassing clouds.N/A89%30.24 "Hg3 mi
6:00 pm17 °FOvercast.N/A88%30.22 "Hg6 mi
Weather by CustomWeather, © 2017

See weather overviewHow to use our weather pages